Location: Moy Burn
(57.3833°N, 4.0667°W)
Time: 10:18:07
(UTC+00:00)

Cosmos 1867 - Pass Details

Date: 08 August 2020
Orbit: 777 x 798 km, 65.0° (Epoch: 18 September)

Event Time Altitude Azimuth Distance (km) Brightness Sun altitude
Rises 22:42:56 0° 223° (SW) 3,281 6.5 -14.0°
Reaches altitude 10° 22:45:20 10° 222° (SW) 2,358 5.8 -14.1°
Maximum altitude 22:50:45 79° 137° (SE) 818 3.5 -14.4°
Drops below altitude 10° 22:56:14 10° 52° (NE) 2,380 6.3 -14.7°
Sets 22:58:40 0° 51° (NE) 3,314 7.0 -14.8°
